Year,Month,Day,Hour,Minute,Value (Times are PST for temperature in C)
2014,06,26,00,00,16.00
2014,06,26,00,01,15.90
2014,06,26,00,02,16.00
2014,06,26,00,03,16.00
2014,06,26,00,04,16.10
2014,06,26,00,05,16.10
2014,06,26,00,06,16.10
2014,06,26,00,07,16.00
2014,06,26,00,08,15.90
2014,06,26,00,09,15.80
2014,06,26,00,10,15.70
2014,06,26,00,11,15.60
2014,06,26,00,12,15.50
2014,06,26,00,13,15.40
2014,06,26,00,14,15.40
2014,06,26,00,15,15.40
2014,06,26,00,16,15.30
2014,06,26,00,17,15.30
2014,06,26,00,18,15.30
2014,06,26,00,19,15.20
2014,06,26,00,20,15.10
2014,06,26,00,21,15.00
2014,06,26,00,22,15.00
2014,06,26,00,23,14.90
2014,06,26,00,24,14.80
2014,06,26,00,25,14.80
2014,06,26,00,26,14.80
2014,06,26,00,27,14.70
2014,06,26,00,28,14.70
2014,06,26,00,29,14.70
2014,06,26,00,30,14.70
2014,06,26,00,31,14.70
2014,06,26,00,32,14.70
2014,06,26,00,33,14.70
2014,06,26,00,34,14.70
2014,06,26,00,35,14.80
2014,06,26,00,36,14.80
2014,06,26,00,37,14.80
2014,06,26,00,38,14.80
2014,06,26,00,39,14.80
2014,06,26,00,40,14.80
2014,06,26,00,41,14.80
2014,06,26,00,42,14.80
2014,06,26,00,43,14.80
2014,06,26,00,44,14.70
2014,06,26,00,45,14.70
2014,06,26,00,46,14.70
2014,06,26,00,47,14.70
2014,06,26,00,48,14.70
2014,06,26,00,49,14.70
2014,06,26,00,50,14.70
2014,06,26,00,51,14.70
2014,06,26,00,52,14.70
2014,06,26,00,53,14.70
2014,06,26,00,54,14.80
2014,06,26,00,55,14.90
2014,06,26,00,56,15.00
2014,06,26,00,57,15.00
2014,06,26,00,58,15.00
2014,06,26,00,59,15.00
2014,06,26,01,00,15.00
2014,06,26,01,01,15.00
2014,06,26,01,02,15.00
2014,06,26,01,03,15.00
2014,06,26,01,04,15.00
2014,06,26,01,05,15.00
2014,06,26,01,06,15.10
2014,06,26,01,07,15.20
2014,06,26,01,08,15.20
2014,06,26,01,09,15.30
2014,06,26,01,10,15.40
2014,06,26,01,11,15.50
2014,06,26,01,12,15.60
2014,06,26,01,13,15.60
2014,06,26,01,14,15.70
2014,06,26,01,15,15.80
2014,06,26,01,16,15.80
2014,06,26,01,17,15.80
2014,06,26,01,18,15.80
2014,06,26,01,19,15.80
2014,06,26,01,20,15.80
2014,06,26,01,21,15.80
2014,06,26,01,22,15.80
2014,06,26,01,23,15.80
2014,06,26,01,24,15.80
2014,06,26,01,25,15.80
2014,06,26,01,26,15.70
2014,06,26,01,27,15.70
2014,06,26,01,28,15.70
2014,06,26,01,29,15.70
2014,06,26,01,30,15.60
2014,06,26,01,31,15.60
2014,06,26,01,32,15.60
2014,06,26,01,33,15.60
2014,06,26,01,34,15.50
2014,06,26,01,35,15.50
2014,06,26,01,36,15.50
2014,06,26,01,37,15.40
2014,06,26,01,38,15.40
2014,06,26,01,39,15.30
2014,06,26,01,40,15.30
2014,06,26,01,41,15.20
2014,06,26,01,42,15.20
2014,06,26,01,43,15.20
2014,06,26,01,44,15.20
2014,06,26,01,45,15.20
2014,06,26,01,46,15.20
2014,06,26,01,47,15.20
2014,06,26,01,48,15.20
2014,06,26,01,49,15.10
2014,06,26,01,50,15.10
2014,06,26,01,51,15.10
2014,06,26,01,52,15.10
2014,06,26,01,53,15.00
2014,06,26,01,54,15.10
2014,06,26,01,55,15.10
2014,06,26,01,56,15.10
2014,06,26,01,57,15.10
2014,06,26,01,58,15.10
2014,06,26,01,59,15.10
2014,06,26,02,00,15.10
2014,06,26,02,01,15.10
2014,06,26,02,02,15.10
2014,06,26,02,03,15.10
2014,06,26,02,04,15.10
2014,06,26,02,05,15.10
2014,06,26,02,06,15.00
2014,06,26,02,07,15.00
2014,06,26,02,08,15.00
2014,06,26,02,09,14.90
2014,06,26,02,10,14.90
2014,06,26,02,11,14.90
2014,06,26,02,12,14.90
2014,06,26,02,13,14.90
2014,06,26,02,14,14.90
2014,06,26,02,15,14.90
2014,06,26,02,16,14.90
2014,06,26,02,17,14.90
2014,06,26,02,18,14.90
2014,06,26,02,19,14.80
2014,06,26,02,20,14.80
2014,06,26,02,21,14.80
2014,06,26,02,22,14.70
2014,06,26,02,23,14.70
2014,06,26,02,24,14.70
2014,06,26,02,25,14.70
2014,06,26,02,26,14.70
2014,06,26,02,27,14.70
2014,06,26,02,28,14.70
2014,06,26,02,29,14.70
2014,06,26,02,30,14.70
2014,06,26,02,31,14.70
2014,06,26,02,32,14.60
2014,06,26,02,33,14.60
2014,06,26,02,34,14.60
2014,06,26,02,35,14.60
2014,06,26,02,36,14.60
2014,06,26,02,37,14.50
2014,06,26,02,38,14.50
2014,06,26,02,39,14.40
2014,06,26,02,40,14.40
2014,06,26,02,41,14.40
2014,06,26,02,42,14.40
2014,06,26,02,43,14.30
2014,06,26,02,44,14.30
2014,06,26,02,45,14.30
2014,06,26,02,46,14.20
2014,06,26,02,47,14.20
2014,06,26,02,48,14.20
2014,06,26,02,49,14.10
2014,06,26,02,50,14.10
2014,06,26,02,51,14.10
2014,06,26,02,52,14.10
2014,06,26,02,53,14.10
2014,06,26,02,54,14.10
2014,06,26,02,55,14.10
2014,06,26,02,56,14.10
2014,06,26,02,57,14.10
2014,06,26,02,58,14.10
2014,06,26,02,59,14.10
2014,06,26,03,00,14.00
2014,06,26,03,01,14.00
2014,06,26,03,02,14.00
2014,06,26,03,03,14.00
2014,06,26,03,04,13.90
2014,06,26,03,05,13.90
2014,06,26,03,06,13.90
2014,06,26,03,07,13.90
2014,06,26,03,08,13.80
2014,06,26,03,09,13.80
2014,06,26,03,10,13.80
2014,06,26,03,11,13.80
2014,06,26,03,12,13.70
2014,06,26,03,13,13.70
2014,06,26,03,14,13.70
2014,06,26,03,15,13.70
2014,06,26,03,16,13.80
2014,06,26,03,17,13.80
2014,06,26,03,18,13.80
2014,06,26,03,19,13.80
2014,06,26,03,20,13.80
2014,06,26,03,21,13.80
2014,06,26,03,22,13.80
2014,06,26,03,23,13.80
2014,06,26,03,24,13.80
2014,06,26,03,25,13.80
2014,06,26,03,26,13.80
2014,06,26,03,27,13.80
2014,06,26,03,28,13.80
2014,06,26,03,29,13.80
2014,06,26,03,30,13.80
2014,06,26,03,31,13.70
2014,06,26,03,32,13.60
2014,06,26,03,33,13.60
2014,06,26,03,34,13.50
2014,06,26,03,35,13.50
2014,06,26,03,36,13.40
2014,06,26,03,37,13.40
2014,06,26,03,38,13.40
2014,06,26,03,39,13.40
2014,06,26,03,40,13.40
2014,06,26,03,41,13.50
2014,06,26,03,42,13.50
2014,06,26,03,43,13.50
2014,06,26,03,44,13.40
2014,06,26,03,45,13.40
2014,06,26,03,46,13.40
2014,06,26,03,47,13.40
2014,06,26,03,48,13.40
2014,06,26,03,49,13.40
2014,06,26,03,50,13.40
2014,06,26,03,51,13.40
2014,06,26,03,52,13.40
2014,06,26,03,53,13.40
2014,06,26,03,54,13.40
2014,06,26,03,55,13.40
2014,06,26,03,56,13.30
2014,06,26,03,57,13.30
2014,06,26,03,58,13.30
2014,06,26,03,59,13.20
2014,06,26,04,00,13.20
2014,06,26,04,01,13.20
2014,06,26,04,02,13.20
2014,06,26,04,03,13.20
2014,06,26,04,04,13.20
2014,06,26,04,05,13.20
2014,06,26,04,06,13.30
2014,06,26,04,07,13.30
2014,06,26,04,08,13.20
2014,06,26,04,09,13.20
2014,06,26,04,10,13.20
2014,06,26,04,11,13.20
2014,06,26,04,12,13.10
2014,06,26,04,13,13.10
2014,06,26,04,14,13.10
2014,06,26,04,15,13.10
2014,06,26,04,16,13.10
2014,06,26,04,17,13.10
2014,06,26,04,18,13.10
2014,06,26,04,19,13.10
2014,06,26,04,20,13.10
2014,06,26,04,21,13.10
2014,06,26,04,22,13.10
2014,06,26,04,23,13.10
2014,06,26,04,24,13.00
2014,06,26,04,25,13.00
2014,06,26,04,26,13.00
2014,06,26,04,27,12.90
2014,06,26,04,28,12.90
2014,06,26,04,29,12.90
2014,06,26,04,30,12.80
2014,06,26,04,31,12.80
2014,06,26,04,32,12.80
2014,06,26,04,33,12.70
2014,06,26,04,34,12.70
2014,06,26,04,35,12.60
2014,06,26,04,36,12.50
2014,06,26,04,37,12.50
2014,06,26,04,38,12.40
2014,06,26,04,39,12.30
2014,06,26,04,40,12.20
2014,06,26,04,41,12.10
2014,06,26,04,42,12.00
2014,06,26,04,43,11.90
2014,06,26,04,44,11.70
2014,06,26,04,45,11.60
2014,06,26,04,46,11.60
2014,06,26,04,47,11.60
2014,06,26,04,48,11.70
2014,06,26,04,49,11.70
2014,06,26,04,50,11.80
2014,06,26,04,51,11.90
2014,06,26,04,52,12.00
2014,06,26,04,53,12.00
2014,06,26,04,54,12.10
2014,06,26,04,55,12.10
2014,06,26,04,56,12.20
2014,06,26,04,57,12.20
2014,06,26,04,58,12.20
2014,06,26,04,59,12.20
2014,06,26,05,00,12.20
2014,06,26,05,01,12.30
2014,06,26,05,02,12.30
2014,06,26,05,03,12.30
2014,06,26,05,04,12.40
2014,06,26,05,05,12.40
2014,06,26,05,06,12.40
2014,06,26,05,07,12.40
2014,06,26,05,08,12.40
2014,06,26,05,09,12.40
2014,06,26,05,10,12.40
2014,06,26,05,11,12.40
2014,06,26,05,12,12.40
2014,06,26,05,13,12.40
2014,06,26,05,14,12.40
2014,06,26,05,15,12.30
2014,06,26,05,16,12.30
2014,06,26,05,17,12.20
2014,06,26,05,18,12.10
2014,06,26,05,19,12.00
2014,06,26,05,20,11.90
2014,06,26,05,21,11.80
2014,06,26,05,22,11.80
2014,06,26,05,23,11.80
2014,06,26,05,24,11.80
2014,06,26,05,25,11.90
2014,06,26,05,26,11.90
2014,06,26,05,27,11.90
2014,06,26,05,28,11.90
2014,06,26,05,29,11.90
2014,06,26,05,30,11.90
2014,06,26,05,31,11.90
2014,06,26,05,32,11.90
2014,06,26,05,33,11.90
2014,06,26,05,34,11.80
2014,06,26,05,35,11.80
2014,06,26,05,36,11.80
2014,06,26,05,37,11.80
2014,06,26,05,38,11.80
2014,06,26,05,39,11.70
2014,06,26,05,40,11.70
2014,06,26,05,41,11.70
2014,06,26,05,42,11.70
2014,06,26,05,43,11.70
2014,06,26,05,44,11.60
2014,06,26,05,45,11.60
2014,06,26,05,46,11.60
2014,06,26,05,47,11.60
2014,06,26,05,48,11.60
2014,06,26,05,49,11.50
2014,06,26,05,50,11.50
2014,06,26,05,51,11.50
2014,06,26,05,52,11.50
2014,06,26,05,53,11.50
2014,06,26,05,54,11.50
2014,06,26,05,55,11.50
2014,06,26,05,56,11.50
2014,06,26,05,57,11.50
2014,06,26,05,58,11.50
2014,06,26,05,59,11.50
2014,06,26,06,00,11.50
2014,06,26,06,01,11.60
2014,06,26,06,02,11.60
2014,06,26,06,03,11.70
2014,06,26,06,04,11.80
2014,06,26,06,05,11.90
2014,06,26,06,06,12.00
2014,06,26,06,07,12.10
2014,06,26,06,08,12.20
2014,06,26,06,09,12.20
2014,06,26,06,10,12.20
2014,06,26,06,11,12.20
2014,06,26,06,12,12.30
2014,06,26,06,13,12.30
2014,06,26,06,14,12.30
2014,06,26,06,15,12.40
2014,06,26,06,16,12.40
2014,06,26,06,17,12.50
2014,06,26,06,18,12.50
2014,06,26,06,19,12.50
2014,06,26,06,20,12.40
2014,06,26,06,21,12.50
2014,06,26,06,22,12.50
2014,06,26,06,23,12.50
2014,06,26,06,24,12.50
2014,06,26,06,25,12.60
2014,06,26,06,26,12.70
2014,06,26,06,27,12.70
2014,06,26,06,28,12.80
2014,06,26,06,29,12.80
2014,06,26,06,30,12.80
2014,06,26,06,31,12.90
2014,06,26,06,32,13.00
2014,06,26,06,33,13.00
2014,06,26,06,34,13.10
2014,06,26,06,35,13.10
2014,06,26,06,36,13.20
2014,06,26,06,37,13.30
2014,06,26,06,38,13.30
2014,06,26,06,39,13.40
2014,06,26,06,40,13.40
2014,06,26,06,41,13.40
2014,06,26,06,42,13.50
2014,06,26,06,43,13.50
2014,06,26,06,44,13.60
2014,06,26,06,45,13.60
2014,06,26,06,46,13.70
2014,06,26,06,47,13.70
2014,06,26,06,48,13.80
2014,06,26,06,49,13.80
2014,06,26,06,50,13.90
2014,06,26,06,51,14.00
2014,06,26,06,52,14.00
2014,06,26,06,53,14.10
2014,06,26,06,54,14.10
2014,06,26,06,55,14.20
2014,06,26,06,56,14.20
2014,06,26,06,57,14.20
2014,06,26,06,58,14.20
2014,06,26,06,59,14.20
2014,06,26,07,00,14.20
2014,06,26,07,01,14.30
2014,06,26,07,02,14.30
2014,06,26,07,03,14.30
2014,06,26,07,04,14.30
2014,06,26,07,05,14.30
2014,06,26,07,06,14.40
2014,06,26,07,07,14.40
2014,06,26,07,08,14.40
2014,06,26,07,09,14.50
2014,06,26,07,10,14.50
2014,06,26,07,11,14.50
2014,06,26,07,12,14.60
2014,06,26,07,13,14.60
2014,06,26,07,14,14.70
2014,06,26,07,15,14.70
2014,06,26,07,16,14.70
2014,06,26,07,17,14.70
2014,06,26,07,18,14.70
2014,06,26,07,19,14.70
2014,06,26,07,20,14.70
2014,06,26,07,21,14.70
2014,06,26,07,22,14.70
2014,06,26,07,23,14.60
2014,06,26,07,24,14.60
2014,06,26,07,25,14.50
2014,06,26,07,26,14.50
2014,06,26,07,27,14.60
2014,06,26,07,28,14.60
2014,06,26,07,29,14.60
2014,06,26,07,30,14.60
2014,06,26,07,31,14.70
2014,06,26,07,32,14.70
2014,06,26,07,33,14.70
2014,06,26,07,34,14.80
2014,06,26,07,35,14.80
2014,06,26,07,36,14.80
2014,06,26,07,37,14.80
2014,06,26,07,38,14.80
2014,06,26,07,39,14.90
2014,06,26,07,40,14.90
2014,06,26,07,41,14.90
2014,06,26,07,42,14.90
2014,06,26,07,43,14.90
2014,06,26,07,44,14.90
2014,06,26,07,45,14.90
2014,06,26,07,46,14.80
2014,06,26,07,47,14.80
2014,06,26,07,48,14.80
2014,06,26,07,49,14.80
2014,06,26,07,50,14.80
2014,06,26,07,51,14.80
2014,06,26,07,52,14.80
2014,06,26,07,53,14.80
2014,06,26,07,54,14.90
2014,06,26,07,55,14.90
2014,06,26,07,56,14.90
2014,06,26,07,57,14.90
2014,06,26,07,58,14.90
2014,06,26,07,59,14.80
2014,06,26,08,00,14.90
2014,06,26,08,01,14.90
2014,06,26,08,02,15.00
2014,06,26,08,03,15.00
2014,06,26,08,04,15.10
2014,06,26,08,05,15.10
2014,06,26,08,06,15.10
2014,06,26,08,07,15.10
2014,06,26,08,08,15.10
2014,06,26,08,09,15.20
2014,06,26,08,10,15.20
2014,06,26,08,11,15.20
2014,06,26,08,12,15.20
2014,06,26,08,13,15.30
2014,06,26,08,14,15.30
2014,06,26,08,15,15.30
2014,06,26,08,16,15.30
2014,06,26,08,17,15.30
2014,06,26,08,18,15.40
2014,06,26,08,19,15.40
2014,06,26,08,20,15.40
2014,06,26,08,21,15.50
2014,06,26,08,22,15.50
2014,06,26,08,23,15.60
2014,06,26,08,24,15.60
2014,06,26,08,25,15.70
2014,06,26,08,26,15.70
2014,06,26,08,27,15.70
2014,06,26,08,28,15.60
2014,06,26,08,29,15.50
2014,06,26,08,30,15.40
2014,06,26,08,31,15.40
2014,06,26,08,32,15.40
2014,06,26,08,33,15.40
2014,06,26,08,34,15.40
2014,06,26,08,35,15.40
2014,06,26,08,36,15.30
2014,06,26,08,37,15.30
2014,06,26,08,38,15.30
2014,06,26,08,39,15.20
2014,06,26,08,40,15.20
2014,06,26,08,41,15.30
2014,06,26,08,42,15.30
2014,06,26,08,43,15.30
2014,06,26,08,44,15.40
2014,06,26,08,45,15.40
2014,06,26,08,46,15.40
2014,06,26,08,47,15.50
2014,06,26,08,48,15.60
2014,06,26,08,49,15.60
2014,06,26,08,50,15.60
2014,06,26,08,51,15.70
2014,06,26,08,52,15.70
2014,06,26,08,53,15.60
2014,06,26,08,54,15.70
2014,06,26,08,55,15.70
2014,06,26,08,56,15.70
2014,06,26,08,57,15.80
2014,06,26,08,58,15.80
2014,06,26,08,59,15.90
2014,06,26,09,00,16.00
2014,06,26,09,01,16.00
2014,06,26,09,02,16.00
2014,06,26,09,03,16.10
2014,06,26,09,04,16.10
2014,06,26,09,05,16.10
2014,06,26,09,06,16.10
2014,06,26,09,07,16.00
2014,06,26,09,08,16.00
2014,06,26,09,09,15.90
2014,06,26,09,10,15.90
2014,06,26,09,11,15.90
2014,06,26,09,12,15.90
2014,06,26,09,13,15.90
2014,06,26,09,14,15.90
2014,06,26,09,15,15.90
2014,06,26,09,16,15.90
2014,06,26,09,17,15.90
2014,06,26,09,18,16.00
2014,06,26,09,19,16.00
2014,06,26,09,20,16.10
2014,06,26,09,21,16.20
2014,06,26,09,22,16.30
2014,06,26,09,23,16.50
2014,06,26,09,24,16.50
2014,06,26,09,25,16.60
2014,06,26,09,26,16.60
2014,06,26,09,27,16.60
2014,06,26,09,28,16.60
2014,06,26,09,29,16.70
2014,06,26,09,30,16.70
2014,06,26,09,31,16.70
2014,06,26,09,32,16.80
2014,06,26,09,33,16.80
2014,06,26,09,34,16.80
2014,06,26,09,35,16.80
2014,06,26,09,36,16.80
2014,06,26,09,37,16.80
2014,06,26,09,38,16.80
2014,06,26,09,39,16.80
2014,06,26,09,40,16.80
2014,06,26,09,41,16.80
2014,06,26,09,42,16.90
2014,06,26,09,43,16.90
2014,06,26,09,44,17.00
2014,06,26,09,45,17.00
2014,06,26,09,46,17.10
2014,06,26,09,47,17.20
2014,06,26,09,48,17.20
2014,06,26,09,49,17.20
2014,06,26,09,50,17.30
2014,06,26,09,51,17.40
2014,06,26,09,52,17.40
2014,06,26,09,53,17.60
2014,06,26,09,54,17.70
2014,06,26,09,55,17.80
2014,06,26,09,56,17.80
2014,06,26,09,57,17.80
2014,06,26,09,58,17.80
2014,06,26,09,59,17.80
2014,06,26,10,00,17.80
2014,06,26,10,01,17.90
2014,06,26,10,02,17.90
2014,06,26,10,03,17.90
2014,06,26,10,04,17.90
2014,06,26,10,05,17.90
2014,06,26,10,06,17.90
2014,06,26,10,07,18.00
2014,06,26,10,08,18.10
2014,06,26,10,09,18.20
2014,06,26,10,10,18.20
2014,06,26,10,11,18.20
2014,06,26,10,12,18.30
2014,06,26,10,13,18.30
2014,06,26,10,14,18.30
2014,06,26,10,15,18.30
2014,06,26,10,16,18.30
2014,06,26,10,17,18.30
2014,06,26,10,18,18.30
2014,06,26,10,19,18.30
2014,06,26,10,20,18.40
2014,06,26,10,21,18.40
2014,06,26,10,22,18.50
2014,06,26,10,23,18.60
2014,06,26,10,24,18.60
2014,06,26,10,25,18.70
2014,06,26,10,26,18.70
2014,06,26,10,27,18.80
2014,06,26,10,28,18.80
2014,06,26,10,29,18.90
2014,06,26,10,30,18.90
2014,06,26,10,31,18.90
2014,06,26,10,32,18.90
2014,06,26,10,33,18.90
2014,06,26,10,34,18.90
2014,06,26,10,35,18.90
2014,06,26,10,36,18.90
2014,06,26,10,37,19.00
2014,06,26,10,38,19.00
2014,06,26,10,39,19.10
2014,06,26,10,40,19.10
2014,06,26,10,41,19.10
2014,06,26,10,42,19.10
2014,06,26,10,43,19.20
2014,06,26,10,44,19.20
2014,06,26,10,45,19.30
2014,06,26,10,46,19.30
2014,06,26,10,47,19.30
2014,06,26,10,48,19.30
2014,06,26,10,49,19.30
2014,06,26,10,50,19.30
2014,06,26,10,51,19.30
2014,06,26,10,52,19.30
2014,06,26,10,53,19.30
2014,06,26,10,54,19.30
2014,06,26,10,55,19.30
2014,06,26,10,56,19.30
2014,06,26,10,57,19.30
2014,06,26,10,58,19.20
2014,06,26,10,59,19.30
2014,06,26,11,00,19.40
2014,06,26,11,01,19.40
2014,06,26,11,02,19.40
2014,06,26,11,03,19.40
2014,06,26,11,04,19.40
2014,06,26,11,05,19.40
2014,06,26,11,06,19.50
2014,06,26,11,07,19.60
2014,06,26,11,08,19.70
2014,06,26,11,09,19.80
2014,06,26,11,10,19.90
2014,06,26,11,11,20.00
2014,06,26,11,12,20.10
2014,06,26,11,13,20.10
2014,06,26,11,14,20.20
2014,06,26,11,15,20.20
2014,06,26,11,16,20.20
2014,06,26,11,17,20.20
2014,06,26,11,18,20.30
2014,06,26,11,19,20.30
2014,06,26,11,20,20.30
2014,06,26,11,21,20.30
2014,06,26,11,22,20.20
2014,06,26,11,23,20.10
2014,06,26,11,24,20.00
2014,06,26,11,25,19.90
2014,06,26,11,26,19.90
2014,06,26,11,27,19.80
2014,06,26,11,28,19.70
2014,06,26,11,29,19.70
2014,06,26,11,30,19.60
2014,06,26,11,31,19.60
2014,06,26,11,32,19.60
2014,06,26,11,33,19.60
2014,06,26,11,34,19.60
2014,06,26,11,35,19.60
2014,06,26,11,36,19.60
2014,06,26,11,37,19.70
2014,06,26,11,38,19.70
2014,06,26,11,39,19.70
2014,06,26,11,40,19.70
2014,06,26,11,41,19.80
2014,06,26,11,42,19.80
2014,06,26,11,43,19.80
2014,06,26,11,44,19.80
2014,06,26,11,45,19.90
2014,06,26,11,46,19.90
2014,06,26,11,47,19.90
2014,06,26,11,48,19.90
2014,06,26,11,49,19.90
2014,06,26,11,50,19.90
2014,06,26,11,51,19.90
2014,06,26,11,52,19.90
2014,06,26,11,53,19.90
2014,06,26,11,54,19.90
2014,06,26,11,55,19.90
2014,06,26,11,56,19.90
2014,06,26,11,57,19.90
2014,06,26,11,58,19.90
2014,06,26,11,59,19.80
2014,06,26,12,00,19.80
2014,06,26,12,01,19.70
2014,06,26,12,02,19.80
2014,06,26,12,03,19.70
2014,06,26,12,04,19.70
2014,06,26,12,05,19.70
2014,06,26,12,06,19.70
2014,06,26,12,07,19.70
2014,06,26,12,08,19.70
2014,06,26,12,09,19.80
2014,06,26,12,10,19.80
2014,06,26,12,11,19.80
2014,06,26,12,12,19.90
2014,06,26,12,13,19.90
2014,06,26,12,14,19.90
2014,06,26,12,15,19.90
2014,06,26,12,16,19.90
2014,06,26,12,17,19.80
2014,06,26,12,18,19.80
2014,06,26,12,19,19.80
2014,06,26,12,20,19.90
2014,06,26,12,21,19.90
2014,06,26,12,22,20.00
2014,06,26,12,23,20.00
2014,06,26,12,24,20.10
2014,06,26,12,25,20.10
2014,06,26,12,26,20.20
2014,06,26,12,27,20.20
2014,06,26,12,28,20.20
2014,06,26,12,29,20.20
2014,06,26,12,30,20.10
2014,06,26,12,31,20.10
2014,06,26,12,32,19.90
2014,06,26,12,33,19.80
2014,06,26,12,34,19.80
2014,06,26,12,35,19.70
2014,06,26,12,36,19.60
2014,06,26,12,37,19.50
2014,06,26,12,38,19.30
2014,06,26,12,39,19.20
2014,06,26,12,40,19.20
2014,06,26,12,41,19.10
2014,06,26,12,42,19.10
2014,06,26,12,43,19.10
2014,06,26,12,44,19.00
2014,06,26,12,45,19.00
2014,06,26,12,46,19.00
2014,06,26,12,47,19.00
2014,06,26,12,48,19.00
2014,06,26,12,49,19.10
2014,06,26,12,50,19.10
2014,06,26,12,51,19.00
2014,06,26,12,52,19.00
2014,06,26,12,53,19.00
2014,06,26,12,54,19.00
2014,06,26,12,55,19.00
2014,06,26,12,56,19.00
2014,06,26,12,57,19.00
2014,06,26,12,58,19.00
2014,06,26,12,59,18.90
2014,06,26,13,00,18.90
2014,06,26,13,01,18.90
2014,06,26,13,02,18.90
2014,06,26,13,03,18.90
2014,06,26,13,04,19.00
2014,06,26,13,05,19.10
2014,06,26,13,06,19.10
2014,06,26,13,07,19.20
2014,06,26,13,08,19.30
2014,06,26,13,09,19.30
2014,06,26,13,10,19.30
2014,06,26,13,11,19.30
2014,06,26,13,12,19.30
2014,06,26,13,13,19.30
2014,06,26,13,14,19.30
2014,06,26,13,15,19.30
2014,06,26,13,16,19.30
2014,06,26,13,17,19.40
2014,06,26,13,18,19.40
2014,06,26,13,19,19.50
2014,06,26,13,20,19.50
2014,06,26,13,21,19.60
2014,06,26,13,22,19.60
2014,06,26,13,23,19.70
2014,06,26,13,24,19.80
2014,06,26,13,25,19.80
2014,06,26,13,26,19.90
2014,06,26,13,27,19.90
2014,06,26,13,28,19.90
2014,06,26,13,29,19.90
2014,06,26,13,30,19.90
2014,06,26,13,31,19.90
2014,06,26,13,32,19.80
2014,06,26,13,33,19.70
2014,06,26,13,34,19.70
2014,06,26,13,35,19.60
2014,06,26,13,36,19.60
2014,06,26,13,37,19.50
2014,06,26,13,38,19.50
2014,06,26,13,39,19.60
2014,06,26,13,40,19.60
2014,06,26,13,41,19.70
2014,06,26,13,42,19.80
2014,06,26,13,43,19.80
2014,06,26,13,44,19.90
2014,06,26,13,45,20.00
2014,06,26,13,46,20.10
2014,06,26,13,47,20.10
2014,06,26,13,48,20.10
2014,06,26,13,49,20.00
2014,06,26,13,50,19.90
2014,06,26,13,51,19.70
2014,06,26,13,52,19.70
2014,06,26,13,53,19.70
2014,06,26,13,54,19.70
2014,06,26,13,55,19.70
2014,06,26,13,56,19.70
2014,06,26,13,57,19.70
2014,06,26,13,58,19.80
2014,06,26,13,59,19.80
2014,06,26,14,00,19.80
2014,06,26,14,01,19.90
2014,06,26,14,02,20.00
2014,06,26,14,03,20.00
2014,06,26,14,04,20.10
2014,06,26,14,05,20.10
2014,06,26,14,06,20.10
2014,06,26,14,07,20.10
2014,06,26,14,08,20.10
2014,06,26,14,09,20.10
2014,06,26,14,10,20.10
2014,06,26,14,11,20.10
2014,06,26,14,12,20.10
2014,06,26,14,13,20.00
2014,06,26,14,14,20.00
2014,06,26,14,15,19.90
2014,06,26,14,16,19.90
2014,06,26,14,17,19.90
2014,06,26,14,18,19.90
2014,06,26,14,19,19.90
2014,06,26,14,20,20.00
2014,06,26,14,21,20.10
2014,06,26,14,22,20.20
2014,06,26,14,23,20.30
2014,06,26,14,24,20.40
2014,06,26,14,25,20.50
2014,06,26,14,26,20.60
2014,06,26,14,27,20.70
2014,06,26,14,28,20.70
2014,06,26,14,29,20.70
2014,06,26,14,30,20.70
2014,06,26,14,31,20.70
2014,06,26,14,32,20.60
2014,06,26,14,33,20.50
2014,06,26,14,34,20.30
2014,06,26,14,35,20.30
2014,06,26,14,36,20.30
2014,06,26,14,37,20.30
2014,06,26,14,38,20.30
2014,06,26,14,39,20.40
2014,06,26,14,40,20.50
2014,06,26,14,41,20.50
2014,06,26,14,42,20.60
2014,06,26,14,43,20.60
2014,06,26,14,44,20.60
2014,06,26,14,45,20.60
2014,06,26,14,46,20.60
2014,06,26,14,47,20.50
2014,06,26,14,48,20.50
2014,06,26,14,49,20.40
2014,06,26,14,50,20.30
2014,06,26,14,51,20.30
2014,06,26,14,52,20.20
2014,06,26,14,53,20.20
2014,06,26,14,54,20.20
2014,06,26,14,55,20.20
2014,06,26,14,56,20.10
2014,06,26,14,57,20.10
2014,06,26,14,58,20.00
2014,06,26,14,59,20.00
2014,06,26,15,00,19.90
2014,06,26,15,01,19.90
2014,06,26,15,02,19.90
2014,06,26,15,03,19.90
2014,06,26,15,04,19.90
2014,06,26,15,05,19.90
2014,06,26,15,06,19.80
2014,06,26,15,07,19.70
2014,06,26,15,08,19.70
2014,06,26,15,09,19.70
2014,06,26,15,10,19.70
2014,06,26,15,11,19.70
2014,06,26,15,12,19.80
2014,06,26,15,13,19.90
2014,06,26,15,14,20.00
2014,06,26,15,15,20.10
2014,06,26,15,16,20.20
2014,06,26,15,17,20.30
2014,06,26,15,18,20.40
2014,06,26,15,19,20.50
2014,06,26,15,20,20.50
2014,06,26,15,21,20.60
2014,06,26,15,22,20.60
2014,06,26,15,23,20.50
2014,06,26,15,24,20.50
2014,06,26,15,25,20.50
2014,06,26,15,26,20.40
2014,06,26,15,27,20.40
2014,06,26,15,28,20.40
2014,06,26,15,29,20.40
2014,06,26,15,30,20.30
2014,06,26,15,31,20.30
2014,06,26,15,32,20.40
2014,06,26,15,33,20.40
2014,06,26,15,34,20.30
2014,06,26,15,35,20.30
2014,06,26,15,36,20.30
2014,06,26,15,37,20.10
2014,06,26,15,38,20.00
2014,06,26,15,39,19.90
2014,06,26,15,40,19.80
2014,06,26,15,41,19.80
2014,06,26,15,42,19.80
2014,06,26,15,43,19.80
2014,06,26,15,44,19.80
2014,06,26,15,45,19.80
2014,06,26,15,46,19.80
2014,06,26,15,47,19.80
2014,06,26,15,48,19.80
2014,06,26,15,49,19.80
2014,06,26,15,50,19.80
2014,06,26,15,51,19.90
2014,06,26,15,52,19.90
2014,06,26,15,53,20.00
2014,06,26,15,54,20.10
2014,06,26,15,55,20.10
2014,06,26,15,56,20.10
2014,06,26,15,57,20.10
2014,06,26,15,58,20.00
2014,06,26,15,59,20.00
2014,06,26,16,00,19.90
2014,06,26,16,01,19.90
2014,06,26,16,02,19.80
2014,06,26,16,03,19.80
2014,06,26,16,04,19.80
2014,06,26,16,05,19.80
2014,06,26,16,06,19.90
2014,06,26,16,07,19.90
2014,06,26,16,08,19.90
2014,06,26,16,09,20.00
2014,06,26,16,10,20.00
2014,06,26,16,11,20.10
2014,06,26,16,12,20.10
2014,06,26,16,13,20.10
2014,06,26,16,14,20.20
2014,06,26,16,15,20.20
2014,06,26,16,16,20.30
2014,06,26,16,17,20.30
2014,06,26,16,18,20.30
2014,06,26,16,19,20.30
2014,06,26,16,20,20.20
2014,06,26,16,21,20.20
2014,06,26,16,22,20.20
2014,06,26,16,23,20.20
2014,06,26,16,24,20.10
2014,06,26,16,25,20.10
2014,06,26,16,26,20.10
2014,06,26,16,27,20.20
2014,06,26,16,28,20.10
2014,06,26,16,29,20.20
2014,06,26,16,30,20.20
2014,06,26,16,31,20.20
2014,06,26,16,32,20.20
2014,06,26,16,33,20.10
2014,06,26,16,34,20.00
2014,06,26,16,35,20.00
2014,06,26,16,36,19.90
2014,06,26,16,37,19.90
2014,06,26,16,38,19.90
2014,06,26,16,39,19.90
2014,06,26,16,40,19.80
2014,06,26,16,41,19.80
2014,06,26,16,42,19.80
2014,06,26,16,43,19.80
2014,06,26,16,44,19.80
2014,06,26,16,45,19.80
2014,06,26,16,46,19.80
2014,06,26,16,47,19.80
2014,06,26,16,48,19.80
2014,06,26,16,49,19.80
2014,06,26,16,50,19.80
2014,06,26,16,51,19.80
2014,06,26,16,52,19.80
2014,06,26,16,53,19.80
2014,06,26,16,54,19.80
2014,06,26,16,55,19.80
2014,06,26,16,56,19.80
2014,06,26,16,57,19.80
2014,06,26,16,58,19.80
2014,06,26,16,59,19.80
2014,06,26,17,00,19.80
2014,06,26,17,01,19.80
2014,06,26,17,02,19.80
2014,06,26,17,03,19.80
2014,06,26,17,04,19.80
2014,06,26,17,05,19.70
2014,06,26,17,06,19.60
2014,06,26,17,07,19.60
2014,06,26,17,08,19.60
2014,06,26,17,09,19.60
2014,06,26,17,10,19.60
2014,06,26,17,11,19.60
2014,06,26,17,12,19.70
2014,06,26,17,13,19.60
2014,06,26,17,14,19.70
2014,06,26,17,15,19.70
2014,06,26,17,16,19.70
2014,06,26,17,17,19.70
2014,06,26,17,18,19.70
2014,06,26,17,19,19.80